STARLINK-30554, 58048

Orbit data source: Space-Track

STARLINK-30554, 58048 is a payload satellite owned by SpaceX/Seattle (US) in LEO that was launched on Mon, 09 Oct 2023 UTC via an FALCON 9 launch vehicle from the Air Force Western Test Range (AFWTR). Payload-class satellites include a variety of spacecraft equipped with specific instruments for various scientific and technological missions. These include communications satellites like Starlink; space stations such as the ISS; scientific satellites like the Hubble; Earth observation satellites from companies like Planet Labs, Umbra, and HawkEye 360; GPS; miniature CubeSats for education and research; and military/defense satellites.

Loading next visibility...
Identifier
58048, 2023-156W
Orbit
LEO
Country
Flag of USUS
Related business
Manufacturer
SpaceX/Seattle
Mission
Operational Commercial Communications
Bus & Motor
STARLINK V2M, Unknown motor
Mass
730 kg wet, ~700 kg dry
Launch date (UTC)
2023-10-09 (2 years ago)
Launch vehicle
FALCON 9
Launch site
Air Force Western Test Range (AFWTR)
Object type
Payload
Rocket body
Debris
Shape & HBR
Box + 2 Pan, 17.7 m
Radar Cross Section
33.884 m², Large (>1 m²)

Expand to show TLE details & history
Last TLE update: 15 hours ago

TLE from 15 hours ago
0 STARLINK-30554
1 58048U 23156W   25348.96828835 -.00000592  00000-0 -78733-5 0  9994
2 58048  53.1584 201.5619 0000948  99.3845 260.7263 15.30176319122014
Epoch: 2025-12-14T23:14Z
TLE epoch observation values (Epoch: 2025-12-14T23:14:20.113Z)
Latitude
-0.00001°
Longitude
129.10449°
Altitude
476.29 km
Speed
7.629 km/s
True Right ascension
13h 26m 14s
True Declination
0° 00' 00"
Sunlit
Object was in daylight at epoch
Visualization orbit readout
Latitude
Unknown
Longitude
Unknown
Altitude
Unknown
Speed
Unknown
Apparent Right ascension
Unknown
Apparent Declination
Unknown
Sunlit
N/A
Visualization observer readout
Local Sidereal Time
13:19:53
Azimuth
Unknown
Elevation
Unknown
Doppler factor
Unknown
Orbital elements
Apogee altitude
476.192 km
Perigee altitude
474.893 km
Semi-major axis
6,853.679 km
Eccentricity
0.00009
Inclination
53.1584°
RAAN
201.5619°
Arg. of periapsis
99.3845°
True anomaly
260.71558°
Mean anomaly
260.7263°
Eccentric anomaly
260.72094°
Mean motion
3.82523 °/min
Orbital period
94.11 mins
BSTAR
-0.0000078733
Loading maneuver chart data...
Computing Atmospheric mass density...
Loading historical data...
Loading historical data...
Loading historical data...
Loading historical data...
Loading historical data...
Loading historical data...
Loading historical data...

Documentation

Showing up to 5 results
|